This is the latest recevied weather packets stored in our database for station/object IU7LMH-13. If no packets are shown the sender has not sent any weather packets the latest 10 day(s).
| Time | Temp. | Humidity | Pressure | Rain* | Wind** | Luminosity | Snow |
|---|---|---|---|---|---|---|---|
| 1777803218 | 24.44° C | 34% | 1017.5 hPa | 0 mm | - | - | - |
| 1777803097 | 24.44° C | 34% | 1017.4 hPa | 0 mm | - | - | - |
| 1777802739 | 24.44° C | 33% | 1017.7 hPa | 0 mm | - | - | - |
| 1777802257 | 24.44° C | 33% | 1017.8 hPa | 0 mm | - | - | - |
| 1777801177 | 24.44° C | 33% | 1017.7 hPa | 0 mm | - | - | - |
| 1777801058 | 23.89° C | 34% | 1017.9 hPa | 0 mm | - | - | - |
| 1777800939 | 23.89° C | 34% | 1017.9 hPa | 0 mm | - | - | - |
| 1777800698 | 24.44° C | 33% | 1017.8 hPa | 0 mm | - | - | - |
| 1777799858 | 23.89° C | 34% | 1018 hPa | 0 mm | - | - | - |
| 1777799742 | 24.44° C | 34% | 1017.9 hPa | 0 mm | - | - | - |
| 1777799617 | 24.44° C | 35% | 1018.1 hPa | 0 mm | - | - | - |
| 1777799258 | 23.33° C | 35% | 1018 hPa | 0 mm | - | - | - |
| 1777798543 | 22.78° C | 36% | 1017.8 hPa | 0 mm | - | - | - |
| 1777798418 | 22.78° C | 36% | 1017.8 hPa | 0 mm | - | - | - |
| 1777797581 | 22.78° C | 36% | 1017.9 hPa | 0 mm | - | - | - |
| 1777795177 | 21.67° C | 39% | 1017.8 hPa | 0 mm | - | - | - |
| 1777793377 | 20.56° C | 41% | 1018.2 hPa | 0 mm | - | - | - |
| 1777792779 | 20° C | 41% | 1018.2 hPa | 0 mm | - | - | - |
| 1777792177 | 20° C | 40% | 1018.4 hPa | 0 mm | - | - | - |
| 1777791819 | 20° C | 40% | 1018.1 hPa | 0 mm | - | - | - |
| 1777791220 | 19.44° C | 40% | 1018.1 hPa | 0 mm | - | - | - |
| 1777790858 | 19.44° C | 42% | 1018.1 hPa | 0 mm | - | - | - |
| 1777790377 | 18.89° C | 43% | 1018.2 hPa | 0 mm | - | - | - |
| 1777790141 | 18.89° C | 42% | 1018.2 hPa | 0 mm | - | - | - |
| 1777789057 | 18.33° C | 43% | 1018.1 hPa | 0 mm | - | - | - |
* Rain latest hour (hover to see other rain measurements)
** Current wind speed in m/s (hover to see current wind gust speed)